Preview of NWS' New Version of Forecast
This preview is not operational and should not be used for support decisions.

Regional Weather Roundup (RWR)

Issued by National Weather Service (NWS)

                            
000
ASUS42 KTBW 171817
RWRFL 
FLORIDA REGIONAL WEATHER ROUNDUP
NATIONAL WEATHER SERVICE TAMPA BAY RUSKIN FL
100 PM EST SUN FEB 17 2019

NOTE: "FAIR" INDICATES FEW OR NO CLOUDS BELOW 12,000 FEET WITH NO
SIGNIFICANT WEATHER AND/OR OBSTRUCTIONS TO VISIBILITY.

FLZ001>010-012>015-112-114-115-171900-
PANHANDLE FLORIDA
  
CITY           SKY/WX    TMP DP  RH WIND       PRES   REMARKS
PENSACOLA      PTSUNNY   74  67  78 SE15      29.87F                  
PENSACOLA NAS  PTSUNNY   76  71  85 SE14      29.86F                  
MILTON NAS     CLOUDY    75  69  81 S14       29.88                   
CRESTVIEW      CLOUDY    77  66  68 S12       29.90F                  
DUKE FIELD     FAIR      75  66  73 S16       29.88F                  
VALPARAISO     FAIR      72  66  83 SE12      29.89F                  
MARY ESTHER    CLOUDY    71  65  83 SE12      29.88F                  
PANAMA CITY    PTSUNNY   77  68  73 SE14G21   29.90F                  
TYNDALL AFB    CLOUDY    74  69  82 S16       29.91F                  
APALACHICOLA   PTSUNNY   72  66  81 S9        29.94F                  

STATION/POSITION SKY/WX   TEMP    WIND        PRES    WAVE   SWELL
                          AIR SEA DIR/SP/G            HT/PER HT/PER
                          (F)     (DEG/KT/KT) (MB)    (FT/S) (FT/S)
30.1N   87.6W              67     120/  8/  8 1011.7F   2/ 5   2/ 5
29.2N   88.2W                     180/ 12/ 14 1011.1F   3/ 6   2/ 9
PANAMA CITY BEAC           66 63  130/ 12/ 13 1013.2F
TOWER C                    68     160/ 12/ 12 1013.7F

$$
FLZ011-016>038-118-127-128-134-139-239-171900-
NORTH FLORIDA
  
CITY           SKY/WX    TMP DP  RH WIND       PRES   REMARKS
MARIANNA       CLOUDY    79  66  64 S14       29.89F                  
TALLAHASSEE    CLOUDY    73  67  81 S9        29.94F                  
PERRY          CLOUDY    75  71  87 SW8       29.97F                  
LIVE OAK       CLOUDY    70  72 100 CALM      29.98F FOG              
CROSS CITY     PTSUNNY   80  64  58 S15       29.97S                  
LAKE CITY      CLOUDY    72  66  83 W6        29.98F                  
GAINESVILLE    FAIR      85  65  51 S13G18    29.98F                  
WILLISTON        N/A    N/A N/A N/A MISG        N/A                   
PALATKA        PTSUNNY   82  64  54 S12G17    29.96F                  
MAYPORT NAS    FAIR      71  64  78 SE8       29.97S                  
JACKSONVILLE   PTSUNNY   77  65  66 W7        29.96S                  
JAX NAS        PTSUNNY   76  67  73 S9        29.97F                  
JAX CECIL      PTSUNNY   79  66  65 S8        29.96F                  
FERNANDINA BEA PTSUNNY   72  65  79 SE12      29.98S                  
ST AUGUSTINE   FAIR      73  65  75 SE13      29.97F                  
PALM COAST     CLOUDY    77  64  65 E9        29.97F                  

STATION/POSITION SKY/WX   TEMP    WIND        PRES    WAVE   SWELL
                          AIR SEA DIR/SP/G            HT/PER HT/PER
                          (F)     (DEG/KT/KT) (MB)    (FT/S) (FT/S)
SHELL POINT      NOT AVBL
KEATON BEACH               67     170/ 11/ 12 1015.2F
CEDAR KEY                  67     170/ 12/ 14 1015.0F
FERNANDINA                 72 62  140/  3/  5 1015.9S
30.7N   81.3W                 61                N/A     2/ 8
MAYPORT                    71 61  140/  5/  8 1014.9F
31.4N   80.9W              60 58   70/  4/  6 1015.9R   3/ 5   3/ 5
ST AUGUSTINE               63 61  170/  6/  6 1014.9F

$$
FLZ040-043>046-052-053-057-058-063-144-171900-
INTERIOR CENTRAL FLORIDA
  
CITY           SKY/WX    TMP DP  RH WIND       PRES   REMARKS
OCALA          FAIR      82  63  52 SW12G22   29.96F                  
LEESBURG       FAIR      82  62  50 S10       29.97F                  
SANFORD        FAIR      83  63  50 S10       29.97F                  
ORLANDO EXEC   FAIR      82  63  52 S10       29.98F                  
ORLANDO INTL   FAIR      82  63  52 S10G18    29.98F                  
KISSIMMEE      FAIR      83  65  54 S13G18    29.98F                  
WINTER HAVEN   PTSUNNY   84  65  52 S12       29.99F                  
LAKELAND       PTSUNNY   82  64  54 SW14G20   29.98F                  
BARTOW         PTSUNNY   84  64  51 S12G21    29.98                   
SEBRING        MOCLDY    85  66  52 S14       29.99F                  
OKEECHOBEE     FAIR      81  68  65 S9        30.00F                  

$$
FLZ041-047-054-059-064-141-147-171900-
EAST CENTRAL FLORIDA
  
CITY           SKY/WX    TMP DP  RH WIND       PRES   REMARKS
ORMOND BEACH   PTSUNNY   77  64  65 E8        29.97F                  
DAYTONA BEACH  PTSUNNY   81  66  60 S12       29.97F                  
DELAND         PTSUNNY   81  63  54 SE10G16   29.96F                  
NEW SMYRNA BEA MOSUNNY   81  64  57 SE8       29.99F                  
JFK SPACE CTR  FAIR      81  64  57 S8        29.98F                  
TITUSVILLE     MOSUNNY   82  64  54 S13       30.00F                  
CAPE CANAVERAL FAIR      77  66  69 SE8       29.98F                  
PATRICK AFB    FAIR      74  69  86 SE12      29.99F                  
MELBOURNE      FAIR      79  67  66 E8        29.99F                  
VERO BEACH     FAIR      80  66  62 E12       30.00F                  
FT PIERCE      FAIR      85  64  49 S10G17    29.99F                  

STATION/POSITION SKY/WX   TEMP    WIND        PRES    WAVE   SWELL
                          AIR SEA DIR/SP/G            HT/PER HT/PER
                          (F)     (DEG/KT/KT) (MB)    (FT/S) (FT/S)
28.5N   80.2W              68     160/  6/  6 1016.7F   1/ 8   2/ 8
28.9N   78.5W              75 75  190/  8/ 10 1017.3F   3/ 8   3/ 8
TRIDENT PIER               71 65  120/  6/  9 1017.0F
28.4N   80.5W                 65                N/A     1/ 8

$$
FLZ050-056-061-142-242-148-248-149-249-151-251-155-255-
160-260-171900-
WEST CENTRAL FLORIDA
  
CITY           SKY/WX    TMP DP  RH WIND       PRES   REMARKS
CRYSTAL RIVER  FAIR      82  64  54 SW7       29.96S                  
INVERNESS      FAIR      82  66  57 S12       29.96F                  
BROOKSVILLE    FAIR      83  64  52 S12G28    29.97F                  
CLEARWATER AIR FAIR      81  64  57 S17       29.96F                  
ST PETE CLEARW FAIR      83  64  52 S21G29    29.97F                  
TAMPA INTL     FAIR      81  65  58 S13       29.98F                  
TAMPA EXEC     CLOUDY    81  66  61 S10G17    29.98F                  
PLANT CITY     CLOUDY    84  66  54 S9G20     29.99F                  
MACDILL AFB    FAIR      79  66  63 S10       29.97F                  
PETER O KNIGHT CLOUDY    81  70  69 S8        29.98F                  
ST PETERSBURG  FAIR      81  65  58 S15       29.95F                  
SARASOTA       FAIR      83  69  62 S18G24    29.96F                  
VENICE         FAIR      82  70  65 S18G29    29.98F                  

STATION/POSITION SKY/WX   TEMP    WIND        PRES    WAVE   SWELL
                          AIR SEA DIR/SP/G            HT/PER HT/PER
                          (F)     (DEG/KT/KT) (MB)    (FT/S) (FT/S)
27.3N   84.2W                 71                N/A     3/ 6
CLEARWATER BEACH           77 66  170/ 15/ 18 1014.9F
MIDDLE TAMPA BAY           76     210/ 15/ 18 1014.9F
VENICE                     73 67  160/ 15/ 16   N/A

$$
FLZ066-069-070-075>078-162-262-165-265-171900-
SOUTHWEST FLORIDA AND KEYS
  
CITY           SKY/WX    TMP DP  RH WIND       PRES   REMARKS
PUNTA GORDA    FAIR      85  66  53 S18G25    30.00F                  
FT MYERS       FAIR      82  68  62 S15       29.98F                  
SOUTHWEST INTL PTSUNNY   82  68  62 S17       29.98F                  
NAPLES         FAIR      82  67  60 S14       29.99F                  
MARCO ISLAND   FAIR      82  72  71 S14       30.01F                  
IMMOKALEE      PTSUNNY   86  66  51 S12       29.97F                  
MARATHON       FAIR      86  70  58 S9        30.00F                  
KEY WEST NAS   FAIR      84  70  62 SE14      30.00F                  
KEY WEST INTL  FAIR      81  70  69 SE15      30.00F                  

STATION/POSITION SKY/WX   TEMP    WIND        PRES    WAVE   SWELL
                          AIR SEA DIR/SP/G            HT/PER HT/PER
                          (F)     (DEG/KT/KT) (MB)    (FT/S) (FT/S)
NAPLES                     76 71  160/ 15/ 18 1015.8F
26.0N   85.6W              79 80  180/ 21/ 29 1012.5F   5/ 6
DRY TORTUGAS               77     160/ 13/ 15 1015.4F
SAND KEY                   77                 1015.9F
SOMBRERO KEY               78                 1015.5F
LONG KEY                   78 76  160/ 12/ 13 1016.5F
MOLASSES REEF              78 78  150/ 12/ 14 1017.3F

$$
FLZ067-068-071>074-168-172>174-171900-
SOUTHEAST FLORIDA 
  
CITY           SKY/WX    TMP DP  RH WIND       PRES   REMARKS
W PALM BEACH   FAIR      83  67  58 SE14G20   30.01F                  
BOCA RATON     MOSUNNY   86  68  54 SE13G23   30.01F                  
FT LAUDER-EXEC FAIR      84  68  58 SE14      30.01F                  
FT LAUDERDALE  FAIR      82  70  66 S15       30.00F                  
POMPANO BEACH  FAIR      83  68  60 S13G22    30.01F                  
PEMBROKE PINES PTSUNNY   83  66  56 S13       30.02F                  
OPA LOCKA      FAIR      83  66  56 S17       30.02F                  
MIAMI          FAIR      82  68  62 SE13G26   30.02F                  
WEST KENDALL   PTSUNNY   83  66  56 S12G18    30.01F                  
HOMESTEAD      CLOUDY    81  70  68 SE14      30.01F                  

STATION/POSITION SKY/WX   TEMP    WIND        PRES    WAVE   SWELL
                          AIR SEA DIR/SP/G            HT/PER HT/PER
                          (F)     (DEG/KT/KT) (MB)    (FT/S) (FT/S)
VIRGINIA KEY               78 76  150/ 12/ 15 1016.3F
LAKE WORTH                 77 77  200/ 14/ 16 1017.4F
FOWEY ROCKS                79 76  150/ 16/ 17 1017.7F
SETTLEMENT POINT           78     180/ 11/ 14 1017.0F

$$